Location: Unspecified
(0.0000°N, 0.0000°E)
Time: 05:01:15
(UTC+00:00)

Envisat - Pass Details

Date: 11 February 2019
Orbit: 764 x 766 km, 98.2° (Epoch: 21 February)

Event Time Altitude Azimuth Distance (km) Brightness Sun altitude
Rises 19:11:49 0° 170° (S) 3,231 6.3 -14.0°
Reaches altitude 10° 19:14:07 10° 171° (S) 2,303 5.5 -14.5°
Maximum altitude 19:19:12 80° 258° (WSW) 780 3.1 -15.8°
Drops below altitude 10° 19:24:15 10° 345° (NNW) 2,292 5.5 -17.0°
Sets 19:26:33 0° 346° (NNW) 3,215 6.2 -17.5°
